Location: Catstown
(52.4386°N, 7.2633°W)
Time: 03:36:29
(UTC+00:00)

Cosmos 2034 Rocket - Pass Details

Date: 18 September 2020
Orbit: 957 x 1001 km, 82.9° (Epoch: 19 October)

Event Time Altitude Azimuth Distance (km) Brightness Sun altitude
Rises 20:40:04 0° 192° (SSW) 3,714 6.9 -18.9°
Reaches altitude 10° 20:42:35 10° 194° (SSW) 2,768 6.2 -19.2°
Maximum altitude 20:48:58 79° 281° (W) 1,022 4.1 -20.0°
Drops below altitude 10° 20:55:21 10° 9° (N) 2,768 6.7 -20.9°
Sets 20:57:53 0° 11° (N) 3,716 7.3 -21.2°
